Date,TemperatureHighF,TemperatureAvgF,TemperatureLowF,DewpointHighF,DewpointAvgF,DewpointLowF,HumidityHigh,HumidityAvg,HumidityLow,PressureMaxIn,PressureMinIn,WindSpeedMaxMPH,WindSpeedAvgMPH,GustSpeedMaxMPH,PrecipitationSumIn
2014-1-1,31.5,23.2,12.9,16.9,6.6,1.7,79,51,28,30.53,30.38,10,2,10,0.00
2014-1-2,25.0,19.8,8.1,11.2,7.6,-1.9,64,59,46,30.47,29.88,12,3,12,0.00
2014-1-3,18.1,8.3,-4.5,3.4,-8.2,-25.2,63,48,34,30.58,29.82,14,4,14,0.00
2014-1-4,28.9,9.9,-6.7,3.8,-10.2,-27.2,57,39,32,30.64,30.44,8,1,8,0.00
2014-1-5,47.1,26.6,8.4,44.9,16.3,-6.0,92,65,51,30.47,29.99,7,0,7,0.24
2014-1-6,56.7,45.3,30.0,56.1,40.4,9.0,98,85,40,29.99,29.52,15,4,15,0.48
2014-1-7,30.2,12.2,6.1,11.5,-8.1,-14.1,51,39,35,30.47,29.70,15,6,15,0.00
2014-1-8,23.2,12.9,4.5,-0.5,-7.8,-15.5,50,39,29,30.64,30.47,8,2,8,0.00
2014-1-9,31.5,16.9,9.7,10.9,1.3,-2.5,67,51,30,30.79,30.61,10,1,10,0.00
2014-1-10,36.9,27.3,11.5,28.3,19.1,-0.4,80,71,58,30.76,30.41,0,0,0,0.08
2014-1-11,57.0,50.4,33.8,56.2,48.5,28.3,98,93,80,30.41,29.46,10,3,10,0.64
2014-1-12,50.5,41.0,27.1,50.0,26.1,14.4,98,59,29,30.17,29.49,15,3,15,0.04
2014-1-13,49.1,36.0,24.8,36.8,25.7,19.3,88,69,37,30.29,30.08,8,1,8,0.00
2014-1-14,47.1,45.4,38.8,41.7,39.5,35.3,88,80,67,30.08,29.79,7,1,7,0.56
2014-1-15,38.7,32.1,28.6,35.4,29.0,26.0,91,88,87,30.14,29.93,6,0,6,0.00
2014-1-16,43.3,38.4,37.0,34.2,30.4,28.4,79,73,65,30.05,29.96,3,0,3,0.00
2014-1-17,43.0,34.4,26.8,35.2,23.2,13.7,89,66,30,30.14,30.05,8,1,8,0.00
2014-1-18,40.3,34.7,30.6,32.3,27.0,15.2,84,74,52,30.05,29.73,10,2,10,0.04
2014-1-19,35.8,30.7,27.0,17.6,12.6,8.6,63,47,34,29.91,29.76,13,4,13,0.00
2014-1-20,45.1,35.8,26.2,19.5,12.9,2.3,53,39,28,30.02,29.67,15,4,15,0.00
2014-1-21,26.1,17.9,9.7,3.6,-1.0,-5.5,58,44,32,30.17,29.96,10,2,10,0.00
2014-1-22,18.7,9.6,4.5,1.6,-8.4,-18.9,58,45,28,30.08,29.82,15,4,15,0.00
2014-1-23,21.4,7.9,-4.4,-4.2,-15.1,-26.7,37,33,30,30.38,30.08,11,2,11,0.00
2014-1-24,20.3,7.0,-3.5,-4.5,-15.1,-23.2,37,35,30,30.47,30.23,13,2,13,0.00
2014-1-25,38.8,24.9,5.5,15.2,6.2,-16.7,66,45,31,30.23,29.55,15,4,15,0.00
2014-1-26,25.3,18.5,12.9,9.3,-0.8,-8.1,66,43,26,30.02,29.55,13,4,13,0.00
2014-1-27,46.6,31.0,18.9,28.9,10.9,-11.1,73,45,24,30.17,29.73,16,4,16,0.00
2014-1-28,24.3,16.8,11.1,-7.3,-11.4,-16.3,31,27,24,30.47,30.17,15,3,15,0.00
2014-1-29,27.1,17.8,11.7,4.7,-4.8,-11.8,58,37,23,30.41,30.14,9,2,9,0.00
2014-1-30,29.8,16.0,3.7,4.1,-5.7,-17.2,60,38,25,30.58,30.32,6,1,6,0.00
2014-1-31,43.3,30.6,14.4,15.2,9.8,2.9,69,44,23,30.38,30.20,9,1,9,0.00
2014-2-1,46.4,35.5,27.5,24.6,16.1,11.4,66,47,27,30.47,30.17,8,1,8,0.00
2014-2-2,54.3,41.5,32.7,40.1,27.0,18.3,80,58,34,30.23,30.02,8,1,8,0.00
2014-2-3,38.3,32.8,21.7,27.3,21.5,15.4,77,64,44,30.44,30.23,6,0,6,0.00
2014-2-4,40.3,25.5,12.2,25.5,13.8,6.9,79,63,37,30.61,30.44,6,0,6,0.00
2014-2-5,35.1,29.5,24.4,28.9,23.5,17.2,81,78,74,30.47,29.76,8,1,8,0.00
2014-2-6,32.9,23.6,14.0,20.2,9.3,1.8,77,56,31,30.41,30.08,8,1,8,0.00
2014-2-7,33.8,19.1,7.3,13.3,4.0,-1.0,70,54,30,30.44,30.32,9,1,9,0.00
2014-2-8,33.8,19.5,5.5,11.6,1.4,-5.0,70,47,25,30.47,30.26,6,1,6,0.00
2014-2-9,36.9,23.7,10.4,7.9,3.3,-3.3,58,42,27,30.29,30.14,6,1,6,0.00
2014-2-10,25.9,16.2,8.1,-0.6,-6.2,-11.8,39,36,31,30.38,30.23,8,2,8,0.00
2014-2-11,26.8,12.5,0.5,0.8,-9.4,-18.6,54,36,29,30.58,30.38,11,2,11,0.00
2014-2-12,32.0,14.6,-3.3,8.0,-7.6,-23.6,52,37,23,30.70,30.47,6,1,6,0.00
2014-2-13,33.6,30.3,21.6,30.6,24.6,7.0,90,80,53,30.47,29.17,10,3,10,0.00
2014-2-14,43.5,33.7,24.8,30.6,21.0,11.1,90,62,36,29.91,29.05,14,4,14,0.04
2014-2-15,39.2,29.5,21.2,29.5,18.8,10.9,83,65,36,29.96,29.67,12,2,12,0.00
2014-2-16,34.9,25.8,18.5,17.0,5.3,-0.3,60,42,30,30.17,29.70,23,6,23,0.00
2014-2-17,32.5,17.8,6.1,-0.4,-7.2,-14.6,43,33,23,30.50,30.17,13,3,13,0.00
2014-2-18,39.7,21.4,6.4,27.8,6.3,-14.3,70,52,37,30.50,30.05,6,0,6,0.00
2014-2-19,11.1,10.0,9.1,1.3,0.3,-0.6,64,64,64,30.26,30.17,0,0,0,0.00
2014-2-22,49.5,41.2,29.8,22.8,16.1,14.0,59,37,26,30.17,30.05,13,3,13,0.00
2014-2-23,57.0,38.8,27.0,39.8,20.3,11.7,80,52,22,30.17,29.93,8,1,8,0.00
2014-2-24,39.6,32.0,21.4,26.6,7.5,-2.6,70,37,24,30.14,29.91,15,5,15,0.00
2014-2-25,35.1,23.0,12.7,7.7,2.4,-2.3,59,41,30,30.17,30.02,11,2,11,0.00
2014-2-26,34.9,20.4,9.1,10.2,-1.0,-14.7,66,41,25,30.14,29.91,13,2,13,0.00
2014-2-27,36.0,19.1,1.9,7.9,-5.4,-21.1,56,33,27,30.14,29.73,17,4,17,0.00
2014-2-28,27.5,14.3,6.1,-4.4,-11.1,-16.3,34,31,23,30.58,30.14,11,3,11,0.00
2014-3-1,40.6,22.4,2.7,12.1,-0.8,-19.3,51,36,30,30.58,30.29,10,2,10,0.00
2014-3-2,42.8,32.8,25.5,20.4,12.5,1.7,63,44,29,30.29,30.11,8,1,8,0.00
2014-3-3,27.5,19.8,8.4,1.9,-5.9,-13.6,35,31,26,30.47,30.14,11,3,11,0.00
2014-3-4,37.2,20.1,2.8,4.5,-5.7,-18.6,43,32,22,30.55,30.38,6,1,6,0.00
2014-3-5,41.5,29.0,20.3,10.0,5.2,1.5,53,37,23,30.61,30.35,8,1,8,0.00
2014-3-6,34.2,20.4,9.9,2.4,-3.4,-8.9,52,36,22,30.76,30.61,7,1,7,0.00
2014-3-7,42.4,27.8,9.1,13.5,6.3,-4.9,59,41,29,30.64,30.05,6,1,6,0.00
2014-3-8,58.6,38.8,21.7,30.6,16.3,9.6,74,43,23,30.05,29.88,11,2,11,0.00
2014-3-9,43.0,35.6,28.8,18.2,10.5,0.3,49,36,25,30.11,29.99,12,3,12,0.00
2014-3-10,51.1,37.3,29.3,23.6,16.0,9.2,54,42,27,30.05,29.76,6,1,6,0.00
2014-3-11,61.3,42.5,29.3,41.2,21.6,13.6,79,48,19,29.85,29.67,15,2,15,0.00
2014-3-12,60.6,45.7,35.1,44.4,31.6,19.2,85,60,28,29.85,29.14,8,1,8,0.28
2014-3-13,39.2,22.1,14.7,34.6,1.5,-8.0,84,42,31,30.17,29.14,10,0,10,0.00
2014-3-14,42.3,29.3,13.6,17.4,5.1,-6.7,55,37,23,30.35,30.08,10,2,10,0.00
2014-3-15,59.5,43.9,33.8,34.2,20.4,11.0,73,42,19,30.08,29.85,19,3,19,0.04
2014-3-16,37.9,30.9,25.0,17.7,2.2,-6.7,48,30,22,30.35,30.08,15,5,15,0.00
2014-3-17,37.6,26.7,19.2,1.6,-3.9,-9.4,42,26,21,30.32,30.17,8,2,8,0.00
2014-3-18,46.6,28.4,15.1,10.8,3.5,-4.6,57,36,19,30.47,30.29,10,1,10,0.00
2014-3-19,50.4,34.4,19.9,33.2,14.7,7.6,79,49,19,30.50,30.05,10,2,10,0.28
2014-3-20,57.0,44.7,36.3,43.2,25.4,9.8,86,53,23,30.05,29.82,15,4,15,0.44
2014-3-21,49.6,38.7,26.6,15.9,10.8,6.4,50,32,21,30.20,29.96,17,4,17,0.00
2014-3-22,61.7,42.1,24.1,28.6,17.8,10.5,70,41,19,30.23,29.85,15,3,15,0.00
2014-3-23,47.1,34.6,24.1,24.9,9.2,-5.1,67,37,20,30.23,30.08,10,3,10,0.00
2014-3-24,35.4,25.0,15.8,0.4,-4.6,-11.4,39,27,22,30.35,30.20,10,3,10,0.00
2014-3-25,45.0,28.6,12.7,9.7,3.6,-2.4,56,36,20,30.32,29.99,9,1,9,0.00
2014-3-26,39.4,30.9,21.7,8.7,1.7,-8.6,40,29,21,30.23,29.82,21,7,21,0.00
2014-3-27,47.1,31.3,19.4,14.3,1.6,-9.1,43,28,19,30.53,30.23,13,4,13,0.00
2014-3-28,56.5,43.6,33.1,39.8,28.8,13.4,81,57,37,30.41,30.11,10,1,10,0.00
2014-3-29,56.5,45.6,36.7,46.7,36.9,28.9,90,74,38,30.38,29.99,8,1,8,1.20
2014-3-30,48.6,43.7,37.6,46.6,39.8,29.9,95,86,72,29.99,29.64,10,2,10,2.28
2014-3-31,44.8,37.7,33.3,33.2,26.2,16.8,85,65,42,30.17,29.82,12,4,12,0.40
2014-4-1,58.8,42.9,30.2,23.6,19.2,15.9,59,40,25,30.26,30.11,10,2,10,0.00
2014-4-2,62.4,43.8,29.3,40.1,23.7,18.8,81,49,25,30.29,30.17,8,1,8,0.00
2014-4-3,63.9,46.4,32.4,28.9,17.9,10.1,79,39,16,30.26,30.14,10,2,10,0.00
2014-4-4,55.9,42.7,37.8,31.6,19.8,12.0,75,41,24,30.26,29.93,9,2,9,0.04
2014-4-5,59.7,45.5,36.0,41.3,25.1,9.5,84,50,22,30.14,29.85,14,4,14,0.04
2014-4-6,60.1,42.4,27.9,20.6,14.0,8.6,62,34,17,30.35,30.14,10,2,10,0.08
2014-4-7,62.6,45.7,31.1,44.6,23.4,12.3,86,46,17,30.38,29.93,8,2,8,0.20
2014-4-8,67.1,54.3,45.9,56.5,40.9,21.6,90,66,28,29.93,29.49,17,3,17,0.44
2014-4-9,60.8,47.8,34.0,36.0,18.4,3.8,76,35,17,30.14,29.70,20,4,20,0.00
2014-4-10,58.6,44.8,27.7,26.1,16.2,4.5,56,34,19,30.35,30.14,12,2,12,0.00
2014-4-11,73.8,58.8,44.8,43.1,31.1,22.8,60,37,21,30.20,30.08,10,2,10,0.00
2014-4-12,71.6,56.5,40.3,43.4,28.7,18.5,84,41,16,30.35,30.11,10,2,10,0.00
2014-4-13,71.4,56.5,39.0,47.3,34.2,24.2,70,45,24,30.38,30.14,12,3,12,0.00
2014-4-14,74.3,63.2,55.9,52.3,45.1,38.3,76,55,30,30.20,30.05,20,5,20,0.00
2014-4-15,60.4,56.2,35.1,57.8,52.4,29.5,94,87,74,30.05,29.73,14,5,14,1.12
2014-4-16,46.6,36.5,29.7,29.6,12.8,3.0,81,42,20,30.73,29.96,17,4,17,0.04
2014-4-17,54.3,39.4,28.0,20.2,13.4,6.8,53,35,20,30.91,30.73,9,2,9,0.00
2014-4-18,57.4,41.3,27.3,26.8,19.7,14.6,71,44,24,30.76,30.38,8,1,8,0.00
2014-4-19,65.7,50.0,33.1,40.0,21.9,11.0,82,40,18,30.53,30.35,15,3,15,0.00
2014-4-20,62.1,46.3,32.0,26.3,17.0,11.5,61,33,16,30.64,30.47,9,2,9,0.00
2014-4-21,68.9,48.4,28.6,39.1,22.2,17.1,80,42,15,30.47,30.02,9,1,9,0.00
2014-4-22,73.8,55.8,38.7,46.9,33.4,26.8,80,48,21,30.02,29.64,11,2,11,0.00
2014-4-23,58.1,49.4,44.6,43.5,32.5,20.7,82,55,29,29.85,29.61,19,5,19,0.08
2014-4-24,60.1,48.7,37.9,20.7,13.0,6.4,38,25,17,30.11,29.85,19,6,19,0.00
2014-4-25,67.8,49.2,30.6,22.7,17.0,12.7,51,30,15,30.17,29.96,10,2,10,0.00
2014-4-26,57.2,47.9,43.0,44.3,34.8,22.5,77,62,39,30.02,29.91,5,1,5,0.36
2014-4-27,62.1,48.1,37.4,42.1,29.1,22.0,87,52,25,30.23,29.99,11,2,11,0.00
2014-4-28,68.4,49.2,33.3,39.7,25.7,22.1,81,45,20,30.32,30.14,11,2,11,0.00
2014-4-29,56.8,46.4,41.5,31.0,26.9,22.1,64,47,30,30.61,30.32,10,3,10,0.00
2014-4-30,48.7,43.7,39.4,46.2,36.0,28.3,91,75,60,30.64,30.23,11,3,11,1.08
2014-5-1,73.4,59.9,48.7,62.3,52.9,46.2,95,80,43,30.23,29.82,8,2,8,1.27
2014-5-2,71.2,58.8,45.5,50.9,32.6,21.4,83,42,19,29.96,29.85,9,2,9,0.00
2014-5-3,73.8,57.6,39.0,50.0,30.1,24.0,82,41,16,30.02,29.88,15,2,15,0.00
2014-5-4,70.9,56.7,45.1,45.1,28.7,18.5,81,40,17,29.91,29.70,20,5,20,0.00
2014-5-5,68.9,56.5,46.4,31.8,27.6,21.4,54,35,20,29.99,29.85,13,4,13,0.00
2014-5-6,70.0,54.5,40.5,43.6,25.1,14.0,75,37,17,30.20,29.99,17,3,17,0.00
2014-5-7,73.0,54.0,34.9,38.2,23.0,16.7,69,35,16,30.35,30.20,10,2,10,0.00
2014-5-8,61.5,53.2,43.0,51.6,40.7,25.6,80,63,43,30.35,30.26,0,0,0,0.08
2014-5-9,63.7,58.4,54.5,56.3,51.3,46.3,89,78,56,30.35,30.20,6,2,6,0.16
2014-5-10,87.4,68.2,60.1,63.0,55.2,40.3,92,69,20,30.20,29.91,10,2,10,0.51
2014-5-11,80.8,66.8,52.2,59.1,37.6,22.6,86,43,14,30.20,29.96,12,3,12,0.35
2014-5-12,86.5,67.4,46.6,48.2,37.5,28.2,71,40,13,30.26,30.14,12,2,12,0.00
2014-5-13,76.3,62.6,49.5,53.5,33.8,26.3,75,37,20,30.44,30.14,10,2,10,0.00
2014-5-14,72.3,59.4,45.9,42.4,37.2,30.1,71,46,23,30.47,30.41,10,1,10,0.00
2014-5-15,81.3,67.7,59.4,60.0,53.6,41.8,86,63,32,30.41,30.29,9,2,9,0.12
2014-5-16,67.6,64.1,61.5,62.9,58.8,55.5,93,83,66,30.29,30.02,8,4,8,0.00
2014-5-17,76.3,64.4,50.0,62.9,43.9,27.8,94,55,21,30.23,29.96,12,3,12,0.72
2014-5-18,74.3,58.8,42.3,42.5,28.5,18.5,81,38,16,30.29,30.17,13,3,13,0.00
2014-5-19,71.6,57.0,39.9,39.3,25.4,19.6,69,34,16,30.29,30.17,13,3,13,0.00
2014-5-20,78.3,61.0,43.0,52.0,30.1,20.3,81,39,15,30.23,30.08,13,3,13,0.00
2014-5-21,81.3,62.0,43.7,52.7,35.8,28.6,85,45,15,30.11,30.05,8,1,8,0.00
2014-5-22,67.6,58.2,54.1,55.5,48.9,42.5,83,72,43,30.05,29.96,6,0,6,0.43
2014-5-23,71.8,60.9,54.1,57.8,49.5,44.2,89,68,39,30.08,29.99,5,0,5,0.40
2014-5-24,72.5,61.5,52.3,53.7,43.5,31.9,85,57,23,30.20,30.05,8,1,8,0.04
2014-5-25,79.9,63.7,48.2,62.7,43.8,34.7,91,55,21,30.20,30.14,7,1,7,0.00
2014-5-26,88.2,68.3,49.3,67.0,45.8,34.9,88,53,18,30.17,29.96,8,2,8,0.00
2014-5-27,91.6,71.1,55.9,59.0,47.4,37.1,82,50,18,29.99,29.88,6,2,6,0.00
2014-5-28,60.1,53.0,48.9,48.1,41.5,36.3,78,65,47,30.35,29.99,6,3,6,0.00
2014-5-29,72.9,56.2,39.0,51.7,34.3,29.3,89,49,22,30.38,30.29,6,1,6,0.00
2014-5-30,80.6,60.1,42.3,53.3,41.7,33.5,86,57,19,30.32,30.11,11,1,11,0.12
2014-5-31,72.9,59.5,47.8,57.4,40.6,30.1,92,56,23,30.41,30.17,10,2,10,0.00
2014-6-5,70.7,63.4,57.2,60.6,53.6,46.8,87,72,45,29.91,29.76,9,1,9,0.32
2014-6-6,80.2,65.6,54.9,54.0,45.1,35.7,85,54,22,30.05,29.88,9,3,9,0.00
2014-6-7,86.5,68.3,50.4,64.3,45.6,36.8,91,53,19,30.11,30.02,11,1,11,0.00
2014-6-8,89.6,71.8,54.1,68.1,47.9,36.9,92,51,18,30.08,29.99,6,1,6,0.00
2014-6-9,76.1,63.4,56.7,62.8,53.7,43.3,86,72,35,30.14,30.05,5,0,5,0.71
2014-6-10,78.3,69.1,61.7,67.1,60.9,54.1,91,76,54,30.17,30.08,8,0,8,0.00
2014-6-11,78.4,66.5,58.6,54.1,43.9,35.9,70,46,25,30.29,30.17,6,1,6,0.00
2014-6-12,73.6,65.3,59.0,59.4,53.0,43.5,82,65,49,30.26,30.14,6,1,6,0.00
2014-6-13,77.2,69.1,63.3,67.2,62.2,58.6,90,79,62,30.14,29.88,5,1,5,0.04
2014-6-14,79.9,68.3,53.1,68.7,50.9,34.4,90,59,27,30.11,29.91,8,2,8,0.00
2014-6-15,83.1,65.4,48.9,65.8,43.1,34.6,91,50,20,30.20,30.11,10,3,10,0.08
2014-6-16,83.3,68.6,51.4,68.0,42.8,34.9,91,47,19,30.29,30.20,8,1,8,0.00
2014-6-17,88.5,74.3,57.6,68.8,55.5,46.9,84,55,32,30.23,30.02,6,2,6,0.00
2014-6-18,95.9,77.1,63.3,79.2,54.2,44.7,89,51,26,30.11,29.91,11,3,11,0.00
2014-6-19,83.3,70.1,59.5,67.6,58.1,49.1,86,69,32,30.14,30.05,0,0,0,0.12
2014-6-20,59.4,53.7,50.5,55.2,49.5,46.6,90,86,69,30.14,30.08,0,0,0,0.00
2014-6-21,88.3,66.0,48.4,64.5,39.3,32.0,89,43,18,30.14,30.02,6,1,6,0.00
2014-6-22,81.3,66.1,49.5,71.3,43.4,34.5,92,51,20,30.17,30.05,5,0,5,0.00
2014-6-23,88.0,68.3,50.9,74.6,46.1,39.2,93,52,20,30.32,30.17,6,2,6,0.00
2014-6-24,88.0,71.2,55.9,72.2,47.8,38.8,90,49,19,30.32,30.17,8,2,8,0.00
2014-6-25,87.6,74.5,62.1,65.8,59.6,51.9,81,62,34,30.17,29.99,0,0,0,0.00
2014-6-26,89.2,76.8,65.5,72.8,61.0,52.2,89,62,30,30.11,29.93,3,1,3,0.00
2014-6-27,88.9,70.6,57.4,72.9,49.1,39.3,91,53,22,30.35,30.11,5,0,5,0.00
2014-6-28,88.9,70.3,53.4,76.6,48.1,37.3,92,53,19,30.41,30.35,5,1,5,0.00
2014-6-29,87.6,70.4,54.7,75.1,50.7,43.8,91,55,23,30.41,30.26,6,1,6,0.00
2014-6-30,90.0,75.3,59.4,73.0,51.0,39.1,88,49,18,30.26,30.08,8,1,8,0.12
2014-7-1,92.1,79.3,65.5,74.3,57.2,53.4,87,51,28,30.11,29.96,8,2,8,0.00
2014-7-2,93.4,78.9,70.3,78.3,63.6,57.4,91,64,32,30.11,29.96,6,3,6,0.00
2014-7-3,93.9,78.9,67.5,79.5,64.4,54.8,91,66,29,30.17,30.02,3,3,3,0.00
2014-7-4,75.6,67.3,61.3,68.9,62.6,58.4,91,85,65,30.14,29.96,3,2,3,0.00
2014-7-5,80.6,68.9,57.9,58.2,42.4,30.9,90,46,17,30.20,30.02,0,0,0,0.00
2014-7-6,86.5,71.2,53.6,65.1,46.6,37.5,89,49,19,30.20,30.05,10,2,10,0.00
2014-7-7,88.7,76.9,65.1,61.9,55.2,51.3,75,50,30,30.05,29.85,4,2,4,0.00
2014-7-8,92.3,79.4,66.2,71.3,59.8,49.9,87,55,24,29.96,29.82,3,3,3,0.00
2014-7-9,90.9,78.8,67.6,64.9,56.2,43.1,81,50,20,30.08,29.85,4,1,4,1.46
2014-7-10,84.2,73.0,64.0,66.8,55.6,43.7,89,60,26,30.29,30.08,4,0,4,0.00
2014-7-11,88.5,72.8,62.1,67.5,51.8,39.0,88,55,18,30.35,30.29,0,0,0,0.00
2014-7-12,91.9,74.1,59.2,71.2,51.8,43.7,92,52,21,30.38,30.26,0,0,0,0.00
2014-7-13,85.5,74.2,63.5,69.0,58.4,52.0,87,61,33,30.29,30.05,0,0,0,0.00
2014-7-14,84.2,76.6,70.0,68.6,64.2,59.5,88,67,44,30.08,29.99,0,0,0,0.00
2014-7-15,83.8,75.6,70.3,75.8,69.1,65.9,91,81,59,29.99,29.88,3,0,3,0.00
2014-7-16,80.1,74.0,65.1,72.4,62.3,54.9,91,70,44,30.02,29.91,0,0,0,0.00
2014-7-17,85.1,73.1,61.9,69.4,51.2,38.7,91,54,20,30.23,29.99,4,1,4,0.00
2014-7-18,84.4,69.3,55.4,65.8,48.4,32.2,91,56,17,30.38,30.23,8,2,8,1.22
2014-7-19,82.0,64.9,56.8,55.4,51.6,44.8,90,67,27,30.38,30.35,4,0,4,2.72
2014-7-20,81.7,67.5,57.6,60.5,51.2,40.4,88,62,24,30.35,30.23,6,0,6,0.00
2014-7-21,67.8,60.1,55.8,57.2,53.9,51.8,89,80,62,30.32,30.29,0,0,0,0.00
2014-7-22,91.9,75.7,61.0,70.7,56.1,48.4,90,56,23,30.32,30.17,9,1,9,0.00
2014-7-23,92.3,77.7,65.3,66.2,59.3,55.8,82,56,31,30.17,29.91,9,2,9,0.04
2014-7-24,84.4,74.1,62.8,68.1,55.3,45.6,88,56,29,30.05,29.91,11,2,11,0.00
2014-7-25,83.3,69.5,56.7,64.2,48.4,36.9,90,54,20,30.14,30.02,8,1,8,0.00
2014-7-26,87.1,71.3,58.8,71.8,53.2,41.2,90,58,22,30.14,30.05,6,1,6,0.00
2014-7-27,85.5,74.4,64.8,68.8,61.6,55.7,86,67,40,30.05,29.82,8,2,8,0.00
2014-7-28,86.2,76.2,67.5,69.6,57.7,43.7,90,57,30,29.82,29.61,10,2,10,0.12
2014-7-29,81.5,69.3,59.4,54.0,47.4,36.5,82,50,22,30.11,29.76,10,2,10,0.00
2014-7-30,85.8,68.3,53.6,63.2,47.0,36.0,90,55,18,30.20,30.08,7,1,7,0.00
2014-7-31,87.4,71.4,56.7,64.3,49.4,38.5,90,53,19,30.29,30.20,8,1,8,0.00
2014-8-1,90.7,75.0,64.2,68.8,58.6,49.2,83,61,25,30.35,30.29,6,1,6,0.00
2014-8-2,74.1,67.0,59.7,64.5,58.0,50.5,89,74,46,30.35,30.26,6,0,6,0.16
2014-8-3,75.6,66.7,59.7,62.1,57.4,52.1,87,74,46,30.29,30.17,4,0,4,0.04
2014-8-4,86.7,72.3,62.2,68.7,59.6,51.8,90,68,32,30.20,30.14,5,0,5,0.00
2014-8-5,93.0,75.8,63.9,72.8,56.6,43.3,91,59,19,30.20,30.05,6,1,6,0.00
2014-8-6,87.3,71.4,60.4,67.0,53.6,40.3,89,60,20,30.05,29.93,10,1,10,0.00
2014-8-7,85.3,67.8,55.2,64.8,46.0,33.5,90,54,19,30.11,29.99,10,2,10,0.00
2014-8-8,86.5,67.7,52.3,61.7,45.2,35.9,89,53,18,30.20,30.11,8,2,8,0.00
2014-8-9,88.3,69.6,54.3,67.1,49.1,35.2,90,57,16,30.23,30.17,8,1,8,0.00
2014-8-10,89.4,70.5,55.9,66.6,49.0,34.1,90,56,15,30.29,30.20,8,1,8,0.00
2014-8-11,91.4,72.5,57.2,65.4,52.0,41.2,90,56,19,30.32,30.23,6,1,6,0.00
2014-8-12,84.0,71.9,60.6,67.3,57.0,43.1,88,64,24,30.26,30.08,6,2,6,0.00
2014-8-13,75.9,69.0,64.0,71.1,63.5,59.3,93,83,68,30.08,29.76,9,2,9,2.56
2014-8-14,78.4,66.0,57.0,60.4,46.7,32.6,92,58,21,29.99,29.88,10,2,10,0.00
2014-8-15,76.1,63.1,52.5,60.6,46.8,34.6,90,61,23,30.11,29.99,9,1,9,0.00
2014-8-16,79.9,64.8,51.1,63.6,46.9,33.5,91,60,20,30.14,30.05,12,1,12,0.00
2014-8-17,82.9,68.8,57.9,68.7,51.8,42.1,89,60,26,30.05,29.91,10,1,10,0.00
2014-8-18,81.5,65.4,52.9,61.1,46.7,35.3,90,58,21,30.02,29.93,10,2,10,0.00
2014-8-19,81.7,64.1,48.9,62.6,46.0,36.0,90,60,20,30.11,30.02,6,1,6,0.00
2014-8-20,85.1,69.3,56.3,65.6,52.8,42.4,91,62,23,30.17,30.08,5,1,5,0.00
2014-8-21,84.0,70.0,58.8,66.2,53.4,38.0,88,60,21,30.23,30.17,6,0,6,0.00
2014-8-22,74.3,68.4,64.0,63.0,56.5,50.0,86,67,44,30.23,30.17,5,0,5,0.04
2014-8-23,79.3,67.0,56.8,59.5,52.0,42.3,86,63,28,30.26,30.20,6,1,6,0.00
2014-8-24,81.7,65.5,51.4,60.6,48.6,39.4,91,61,23,30.29,30.23,6,1,6,0.00
2014-8-25,89.4,70.1,54.1,69.6,53.8,43.0,91,64,20,30.32,30.23,8,1,8,0.00
2014-8-26,87.6,70.1,58.1,69.7,56.6,49.7,91,67,30,30.32,30.20,6,1,6,0.00
2014-8-27,89.4,72.6,59.2,71.8,56.4,48.7,90,63,26,30.20,29.99,8,1,8,0.00
2014-8-28,82.0,68.9,58.1,62.5,49.8,35.2,88,57,21,30.17,29.96,12,2,12,0.00
2014-8-29,82.6,63.8,51.4,56.6,45.0,35.0,88,57,21,30.41,30.17,6,1,6,0.00
2014-8-30,80.6,64.9,50.9,64.9,50.7,44.9,92,65,30,30.44,30.29,9,1,9,0.00
2014-8-31,88.3,74.9,67.5,68.1,63.6,59.2,90,70,39,30.29,30.08,6,1,6,0.95
2014-9-1,91.0,79.5,70.7,69.0,63.7,56.9,86,61,34,30.11,30.05,5,0,5,0.04
2014-9-2,91.9,78.6,68.2,78.8,64.6,55.9,90,67,31,30.08,29.91,8,1,8,0.00
2014-9-3,84.0,73.0,59.9,68.2,52.3,38.1,83,53,21,30.23,29.88,12,3,12,0.00
2014-9-4,86.4,69.4,55.6,73.1,52.7,38.8,91,65,19,30.35,30.23,8,1,8,0.00
2014-9-5,88.2,74.9,63.0,74.6,61.3,52.2,91,67,30,30.32,30.14,8,1,8,0.00
2014-9-6,90.1,80.0,73.6,73.6,67.2,59.9,86,68,37,30.14,29.93,8,1,8,0.00
2014-9-8,79.5,68.2,54.3,57.7,47.8,41.0,91,52,27,30.50,30.44,8,1,8,0.00
2014-9-9,74.8,64.1,53.2,57.3,48.8,44.8,86,60,36,30.47,30.32,6,1,6,0.00
2014-9-10,77.0,64.1,57.9,56.3,51.7,43.0,86,68,31,30.32,30.17,8,1,8,0.00
2014-9-11,80.6,69.5,57.6,65.5,58.0,43.8,91,69,40,30.17,29.93,9,1,9,0.00
2014-9-12,75.4,63.1,53.1,50.6,42.6,34.8,79,51,23,30.35,30.08,11,2,11,0.00
2014-9-13,71.2,60.7,54.0,54.6,45.3,38.9,87,59,34,30.38,30.23,6,0,6,0.24
2014-9-14,69.3,55.9,46.2,52.5,42.1,30.0,92,66,24,30.38,30.26,9,2,9,0.00
2014-9-15,70.7,55.0,42.3,48.9,39.2,28.1,91,63,22,30.38,30.23,14,1,14,0.00
2014-9-16,73.2,57.3,48.2,57.0,49.6,43.3,90,77,39,30.23,30.08,6,0,6,0.00
2014-9-17,74.5,56.5,44.2,57.1,42.1,29.6,93,66,22,30.20,30.08,8,1,8,0.00
2014-9-18,76.1,56.8,42.3,62.2,42.0,32.3,92,66,21,30.26,30.08,8,1,8,0.00
2014-9-19,66.0,53.7,45.0,47.7,34.5,24.8,83,53,23,30.53,30.26,6,1,6,0.00
2014-9-20,76.1,58.5,42.3,56.4,44.0,36.5,87,63,31,30.53,30.20,8,1,8,0.00
2014-9-21,79.9,69.1,58.6,71.9,62.3,52.8,90,80,54,30.23,29.73,5,0,5,0.67
2014-9-22,73.2,62.4,47.8,64.3,44.7,28.8,91,58,23,30.26,29.73,13,3,13,0.00
2014-9-23,71.2,54.5,40.6,52.0,38.9,31.1,88,61,24,30.55,30.26,6,1,6,0.00
2014-9-24,72.5,57.4,46.0,57.1,44.7,35.1,91,67,26,30.73,30.55,7,0,7,0.00
2014-9-25,64.0,57.8,54.9,51.8,49.5,43.1,87,75,58,30.64,30.35,6,1,6,0.28
2014-9-26,76.3,61.5,53.1,55.7,48.3,36.5,90,68,25,30.35,30.26,9,1,9,0.04
2014-9-27,81.5,61.8,48.7,65.4,49.7,43.6,92,70,27,30.35,30.26,5,0,5,0.00
2014-9-28,84.7,65.2,51.4,70.4,52.5,43.7,92,69,24,30.32,30.14,6,0,6,0.00
2014-9-29,80.2,65.5,57.4,68.1,56.6,47.6,91,75,34,30.14,30.05,4,0,4,0.00
2014-9-30,64.2,60.5,57.9,59.0,53.9,51.0,85,79,66,30.14,30.08,6,1,6,0.00
2014-10-1,62.4,58.5,57.2,59.5,54.4,52.8,91,86,82,30.20,30.11,5,0,5,1.27
2014-10-2,65.1,58.7,50.9,53.7,50.0,43.3,86,74,53,30.29,30.20,6,1,6,0.00
2014-10-3,69.4,56.6,45.3,54.1,43.7,37.7,91,66,32,30.29,30.02,8,1,8,0.00
2014-10-4,65.7,58.8,54.0,63.3,54.8,48.0,92,87,76,30.02,29.64,10,1,10,0.60
2014-10-5,61.7,50.4,40.1,53.9,35.9,22.8,91,63,24,30.11,29.76,9,2,9,0.00
2014-10-6,68.0,51.5,36.3,56.1,38.4,33.1,92,66,30,30.26,30.11,6,1,6,0.00
2014-10-7,73.4,64.5,51.8,57.7,51.5,43.7,88,65,36,30.23,30.08,8,2,8,0.00
2014-10-8,74.5,63.7,51.3,61.1,47.3,32.3,86,60,22,30.08,29.88,12,2,12,0.08
2014-10-9,70.0,53.7,42.3,51.0,35.3,27.0,90,56,23,30.14,30.02,10,1,10,0.00
2014-10-10,65.8,50.5,38.7,51.6,35.6,25.7,89,62,24,30.26,30.14,10,1,10,0.00
2014-10-11,54.7,48.4,39.7,46.4,41.6,35.8,87,77,62,30.29,30.20,5,0,5,0.28
2014-10-12,63.5,46.9,35.8,49.4,33.6,24.6,94,67,24,30.44,30.29,8,1,8,0.00
2014-10-13,66.4,53.1,36.7,57.7,43.3,32.9,90,72,42,30.50,30.41,8,0,8,0.00
2014-10-14,77.2,66.6,59.5,66.9,55.4,46.8,89,70,35,30.41,30.26,7,1,7,0.00
2014-10-15,79.2,70.6,64.6,66.0,60.9,54.7,88,73,44,30.29,30.05,10,2,10,0.08
2014-10-16,70.5,66.5,59.7,67.4,62.7,55.8,91,88,79,30.05,29.82,11,2,11,1.15
2014-10-17,73.0,62.2,54.0,63.8,51.6,39.1,93,74,33,29.85,29.76,8,1,8,0.00
2014-10-18,69.4,58.9,53.6,57.1,48.4,40.3,91,71,36,29.79,29.67,6,1,6,0.04
2014-10-19,55.9,49.6,39.2,49.1,26.9,15.9,84,43,25,30.14,29.79,15,5,15,0.00
2014-10-20,58.1,44.6,31.6,38.0,27.7,17.3,81,55,26,30.17,30.11,8,1,8,0.00
2014-10-21,70.0,53.5,41.4,55.9,41.8,30.5,90,69,24,30.11,29.99,6,0,6,0.04
2014-10-22,56.7,52.4,48.2,50.9,46.6,44.1,95,81,71,30.11,29.85,13,3,13,0.76
2014-10-23,56.1,51.3,47.8,47.7,45.1,39.1,96,80,56,29.88,29.73,9,4,9,0.08
2014-10-24,55.9,51.0,47.1,45.8,38.6,31.8,85,64,40,29.93,29.82,11,3,11,0.04
2014-10-25,66.6,53.2,39.2,47.6,35.2,28.1,90,56,25,29.96,29.67,10,2,10,0.00
2014-10-26,59.5,51.0,40.8,46.3,33.9,26.0,87,55,28,29.91,29.61,17,3,17,0.04
2014-10-27,59.4,50.8,45.1,37.4,31.9,26.1,67,50,28,30.08,29.91,14,3,14,0.00
2014-10-29,61.0,54.5,47.8,45.2,42.7,38.4,77,66,44,30.05,29.96,6,1,6,0.04
2014-10-30,60.4,46.0,36.5,49.3,32.0,22.1,91,63,25,30.14,30.05,10,1,10,0.00
2014-10-31,56.8,44.1,32.7,46.7,32.6,27.5,92,68,35,30.17,30.05,8,0,8,0.04
2014-11-1,47.3,43.9,40.6,39.9,31.9,20.6,89,65,38,30.05,29.88,10,2,10,0.44
2014-11-2,47.5,41.2,36.3,31.5,16.2,4.5,71,38,22,30.05,29.79,17,6,17,0.00
2014-11-3,55.9,42.4,34.5,25.0,16.1,5.1,65,36,20,30.23,30.05,12,4,12,0.00
2014-11-4,66.7,50.4,34.9,38.4,26.9,17.3,67,44,17,30.29,30.14,7,1,7,0.00
2014-11-5,66.9,54.9,43.5,46.2,32.4,21.4,70,45,24,30.26,30.11,11,2,11,0.00
2014-11-6,50.5,47.8,43.5,45.2,39.7,28.4,88,74,55,30.26,29.67,5,0,5,0.28
2014-11-7,51.4,44.6,35.6,43.5,30.4,16.3,90,60,35,29.99,29.64,15,5,15,0.00
2014-11-8,48.7,38.1,30.7,25.9,18.3,13.2,73,46,28,30.14,29.99,9,2,9,0.00
2014-11-9,57.7,43.4,33.8,43.9,28.4,19.9,81,60,26,30.14,30.02,9,1,9,0.00
2014-11-10,60.6,42.3,29.8,47.3,27.4,19.2,89,61,25,30.32,30.14,8,1,8,0.00
2014-11-11,65.8,49.6,33.6,54.0,40.1,28.5,87,71,43,30.32,30.08,8,1,8,0.00
2014-11-12,66.0,54.7,40.6,57.9,43.0,17.4,90,68,32,30.17,29.96,12,2,12,0.00
2014-11-13,52.7,40.9,29.1,29.0,19.9,15.6,76,45,26,30.23,30.08,8,1,8,0.12
2014-11-14,43.3,34.5,25.3,31.7,21.1,9.5,84,61,29,30.29,30.05,14,2,14,0.12
2014-11-15,40.3,28.9,21.9,25.4,13.0,3.9,85,56,23,30.50,30.26,13,2,13,0.00
2014-11-16,46.4,33.4,21.0,27.5,19.4,13.2,78,58,34,30.53,30.26,8,0,8,0.00
2014-11-17,52.5,42.3,36.3,49.4,37.2,23.7,90,82,59,30.26,29.58,12,1,12,1.59
2014-11-18,44.8,33.1,21.9,41.8,11.0,-4.6,90,43,22,30.17,29.64,15,5,15,0.00
2014-11-19,35.8,26.3,19.2,12.4,2.2,-4.0,52,36,24,30.32,30.17,13,3,13,0.00
2014-11-20,49.8,35.7,25.7,19.7,11.2,2.4,59,37,24,30.20,29.91,13,3,13,0.00
2014-11-21,35.4,25.1,20.1,11.6,3.6,-1.9,61,40,25,30.58,30.08,14,3,14,0.00
2014-11-22,42.4,32.0,16.7,19.9,9.4,4.2,71,42,23,30.61,30.29,11,3,11,0.00
2014-11-23,60.6,44.6,36.3,26.4,17.6,10.4,61,35,24,30.32,30.20,6,1,6,0.00
2014-11-24,62.6,57.7,38.7,61.0,54.0,26.4,96,88,61,30.17,29.76,11,4,11,0.88
2014-11-25,62.2,51.8,39.0,53.9,33.4,16.1,87,55,22,30.26,29.85,16,2,16,0.00
2014-11-26,43.0,37.1,32.5,32.3,28.0,18.8,96,72,39,30.32,29.82,15,2,15,1.04
2014-11-27,39.7,34.2,31.3,37.5,28.5,20.6,97,81,49,30.14,29.88,13,2,13,0.24
2014-11-28,35.8,30.6,25.0,26.5,16.1,7.8,81,57,36,30.38,30.14,16,3,16,0.00
2014-11-29,33.4,27.6,19.8,21.5,13.2,9.2,71,55,41,30.47,30.38,6,0,6,0.00
2014-11-30,56.3,46.3,34.0,38.4,29.5,21.8,76,54,35,30.38,30.17,12,2,12,0.04
2014-12-1,65.3,49.0,37.0,47.9,30.9,13.2,77,51,34,30.55,30.17,13,3,13,0.00
2014-12-2,42.4,36.3,32.2,29.9,17.6,10.6,79,48,30,30.79,30.47,10,2,10,0.04
2014-12-3,41.0,37.7,36.0,33.4,31.3,26.0,84,77,64,30.47,30.17,8,1,8,0.08
2014-12-4,44.2,33.1,25.0,35.5,18.4,7.0,88,58,28,30.64,30.26,10,1,10,0.00
2014-12-5,44.8,34.3,23.4,33.2,19.1,6.8,79,57,30,30.76,30.50,6,1,6,0.16
2014-12-6,43.3,39.9,37.0,39.4,36.0,33.0,90,86,76,30.50,30.23,6,0,6,1.16
2014-12-7,39.4,32.9,21.0,34.9,10.4,-8.2,91,43,22,30.76,30.32,12,4,12,0.12
2014-12-8,30.4,25.4,19.0,19.3,5.3,-9.0,63,42,27,30.82,30.55,6,2,6,0.00
2014-12-9,42.1,37.5,30.7,41.3,34.9,19.9,98,91,64,30.53,29.67,12,4,12,2.24
2014-12-10,40.5,36.8,32.4,39.9,35.4,30.3,98,95,89,29.73,29.58,10,2,10,0.16
2014-12-11,36.7,32.1,27.5,34.0,25.8,20.2,92,78,53,29.96,29.64,8,2,8,0.00
2014-12-12,35.6,30.6,24.1,25.7,19.6,15.0,86,65,44,30.05,29.96,8,2,8,0.00
2014-12-13,40.3,32.1,26.1,20.7,17.2,13.7,69,55,38,30.23,29.96,12,4,12,0.00
2014-12-14,44.8,33.9,25.0,31.8,21.8,17.3,86,63,38,31.03,29.93,11,2,11,0.00
2014-12-15,45.7,33.9,26.6,30.2,20.8,16.4,82,60,37,30.35,30.05,6,1,6,0.00
2014-12-16,39.9,33.3,24.1,35.2,27.8,19.1,86,80,75,31.26,30.11,3,0,3,0.08
2014-12-17,51.6,43.2,36.3,41.8,33.3,23.3,89,70,43,30.35,29.96,13,3,13,0.20
2014-12-18,41.4,36.9,33.6,28.2,20.0,15.9,70,51,38,31.35,30.35,15,6,15,0.00
2014-12-19,35.6,33.6,26.1,17.7,13.9,9.9,53,44,40,31.35,31.23,9,4,9,0.00
2014-12-20,33.6,28.6,21.6,20.2,15.5,11.1,76,58,45,31.35,31.35,4,1,4,0.00
2014-12-21,37.9,34.3,31.3,31.1,26.6,19.0,79,73,60,31.35,31.35,0,0,0,0.00
2014-12-22,37.6,34.1,33.6,33.2,28.6,28.2,84,80,79,31.35,31.35,0,0,0,0.00
2014-12-23,46.9,45.6,41.0,42.8,41.3,36.5,89,85,81,31.35,30.23,4,0,4,0.00
2014-12-24,60.4,49.0,43.2,58.7,46.3,40.4,95,90,88,30.26,29.70,11,1,11,0.00
2014-12-25,58.3,49.1,34.5,56.7,35.2,15.9,96,64,27,30.17,29.64,13,3,13,0.00
2014-12-26,49.3,35.7,28.4,37.0,22.3,15.9,86,61,29,30.38,30.17,10,1,10,0.00
2014-12-27,54.0,36.6,27.3,43.5,25.1,19.0,89,66,30,30.41,30.23,8,1,8,0.00
2014-12-28,50.9,44.0,35.1,42.2,31.2,15.8,76,61,42,30.20,29.96,11,2,11,0.00
2014-12-29,42.4,33.0,26.1,29.3,14.8,9.1,76,49,30,30.41,30.17,10,2,10,0.00
2014-12-30,31.5,24.5,16.5,14.9,3.9,-3.3,65,42,25,30.53,30.38,13,3,13,0.00
2014-12-31,33.1,22.6,14.5,8.9,2.2,-4.4,56,42,25,30.50,30.29,13,2,13,0.00
2015-1-1,34.0,25.9,14.5,11.1,2.5,-3.6,61,37,25,30.29,30.08,10,3,10,0.00
2015-1-2,42.3,32.1,23.4,12.3,8.9,3.8,62,38,29,30.61,30.11,15,3,15,0.00